OSCAR 7 1 7530U 74089B 26122.01179338 -.00000042 00000-0 28922-4 0 9992 2 7530 101.9925 134.7737 0012014 217.8444 167.2097 12.53697383354735 OSCAR 11 (UOSAT 2) 1 14781U 84021B 26122.17513038 .00001531 00000-0 16181-3 0 9997 2 14781 97.8027 88.2776 0007210 348.4871 11.6181 14.90673353250274 OSCAR 19 (LUSAT) 1 20442U 90005G 26121.99488370 .00000128 00000-0 62594-4 0 9997 2 20442 98.8879 142.5213 0011256 347.3263 12.7636 14.34108434895777 EYESAT A 1 22825U 93061C 26122.12958426 .00000104 00000-0 56775-4 0 9997 2 22825 98.6898 189.5544 0007505 230.3562 129.6959 14.30929457700410 ITAMSAT 1 22826U 93061D 26122.19260655 .00000117 00000-0 61065-4 0 9997 2 22826 98.6845 189.5302 0008282 212.3564 147.7111 14.31355204700730 RADIO ROSTO 1 23439U 94085A 26122.17503766 -.00000036 00000-0 18934-3 0 9993 2 23439 64.8209 17.6312 0154648 12.2630 348.1992 11.27583775290715 JAS 2 1 24278U 96046B 26122.17480970 .00000002 00000-0 38829-4 0 9993 2 24278 98.5292 337.3359 0349241 215.7085 142.0239 13.53272141466943 TECHSAT 1B 1 25397U 98043D 26121.91459249 .00000064 00000-0 47909-4 0 9998 2 25397 99.0062 113.5096 0001546 33.8269 326.3007 14.24419145444745 ISS (ZARYA) 1 25544U 98067A 26122.13533514 .00007461 00000-0 14312-3 0 9990 2 25544 51.6309 168.0490 0007234 13.9157 346.2029 15.49057929564615 PCSAT 1 26931U 01043C 26122.13090712 .00000151 00000-0 87099-4 0 9999 2 26931 67.0525 3.3941 0006422 263.8951 96.1419 14.31938008283859 SAUDISAT 1C 1 27607U 02058C 26121.76023789 .00001348 00000-0 17601-3 0 9995 2 27607 64.5517 272.6163 0075624 270.9121 88.3321 14.82944454257571 CUTE-1 1 27844U 03031E 26121.95402279 .00000304 00000-0 15057-3 0 9990 2 27844 98.6752 131.0926 0008819 326.3478 33.7140 14.24306450185095 CUBESAT XI 4 1 27848U 03031J 26121.00566327 .00000259 00000-0 13282-3 0 9992 2 27848 98.6788 129.9070 0009103 348.5967 11.5004 14.23594934184660 MOZHAYETS 4 1 27939U 03042A 26122.18352697 .00001204 00000-0 19394-3 0 9999 2 27939 98.3462 305.2461 0012413 57.9830 78.4562 14.73385233208773 CUBESAT XI 5 1 28895U 05043F 26121.85735265 .00001476 00000-0 24048-3 0 9996 2 28895 98.2932 276.5239 0013862 357.9727 2.1421 14.72507973 94931 CUTE-1.7+APD 2 1 32785U 08021C 26122.16967991 .00006543 00000-0 41750-3 0 9995 2 32785 97.8253 102.6548 0008978 174.8126 185.3197 15.09012972978259 SEEDS 1 32791U 08021J 26121.95486789 .00019753 00000-0 65757-3 0 9999 2 32791 97.7523 117.7064 0005101 105.2842 254.8962 15.31168166980216 YUBELEINY 1 32953U 08025A 26122.14547949 -.00000010 00000-0 -14456-3 0 9999 2 32953 82.5084 24.0773 0020568 52.9935 307.3023 12.43177566813976 KKS-1 (KISEKI) 1 33499U 09002H 26122.10777964 .00001557 00000-0 19831-3 0 9996 2 33499 98.1194 43.8244 0009344 81.0975 279.1295 14.83003163929360 SWISSCUBE 1 35932U 09051B 26122.19071120 .00001171 00000-0 24128-3 0 9991 2 35932 98.4064 29.2752 0007000 7.5176 352.6128 14.62391027882432 BEESAT 1 35933U 09051C 26122.17643853 .00000973 00000-0 20554-3 0 9996 2 35933 98.3993 28.9917 0005796 23.4704 336.6760 14.61643730882463 ITUPSAT 1 1 35935U 09051E 26122.19566826 .00000896 00000-0 19524-3 0 9993 2 35935 98.4079 28.2514 0008173 30.1574 330.0094 14.60369899882029 XIWANG-1 (HOPE-1) 1 36122U 09072B 26122.18841869 -.00000302 00000-0 -67541-3 0 9993 2 36122 100.3995 76.7627 0007461 344.1156 15.9722 13.16436963786953 TISAT 1 1 36799U 10035E 26122.09862737 .00020677 00000-0 71445-3 0 9994 2 36799 98.0700 64.6347 0004339 71.8669 288.3042 15.29960299860650 JUGNU 1 37839U 11058B 26122.01523882 .00000456 00000-0 98473-4 0 9997 2 37839 19.9602 228.9375 0018473 286.9965 232.1336 14.13762839752483 SRMSAT 1 37841U 11058D 26122.00684734 .00000423 00000-0 85750-4 0 9991 2 37841 19.9735 338.9910 0011766 56.2157 94.3817 14.11564910751286 HORYU 2 1 38340U 12025D 26121.93084602 .00003392 00000-0 35097-3 0 9996 2 38340 98.2108 253.0028 0007453 342.0105 18.0847 14.90787933741834 STRAND 1 1 39090U 13009E 26122.10521535 .00000278 00000-0 10784-3 0 9999 2 39090 98.3913 303.4762 0008896 17.0043 343.1440 14.37135474690448 CUBEBUG 1 1 39153U 13018D 26122.18595242 .00004885 00000-0 42938-3 0 9997 2 39153 98.1618 280.1009 0010059 303.9831 56.0433 14.97015071704184 ZACUBE 1 39417U 13066B 26122.14303487 .00005768 00000-0 44987-3 0 9994 2 39417 97.8128 84.2319 0043445 47.6207 312.8681 15.00814563673822 TRITON 1 1 39427U 13066M 26122.16897385 .00005559 00000-0 66653-3 0 9994 2 39427 97.8281 33.0258 0091111 25.2717 335.2911 14.81493865667271 GOMX 1 1 39430U 13066Q 26122.15128822 .00002177 00000-0 33346-3 0 9996 2 39430 97.6509 325.5153 0127766 224.9667 134.1138 14.69283470663152 CUBEBUG 2 1 39440U 13066AA 26121.83674549 .00003148 00000-0 29572-3 0 9998 2 39440 97.8881 70.6420 0057831 179.6191 180.5082 14.93428707670079 FUNCUBE 1 1 39444U 13066AE 26122.17507811 .00010851 00000-0 68191-3 0 9996 2 39444 97.8256 92.6904 0036766 3.8384 356.3119 15.08867210672727 UWE-3 1 39446U 13066AG 26122.15650178 .00005573 00000-0 48114-3 0 9999 2 39446 97.8677 77.9452 0051193 112.3633 248.3024 14.96643380670699 UNISAT 6 1 40012U 14033C 26121.93860434 .00003141 00000-0 34246-3 0 9998 2 40012 97.7820 275.4885 0044463 219.5108 140.2864 14.87971418639281 DUCHIFAT 1 1 40021U 14033M 26122.10350920 .00071269 00000-0 98640-3 0 9996 2 40021 98.0523 175.1039 0004936 215.6869 144.4054 15.56863201648569 QB50P1 1 40025U 14033R 26122.00436191 .00009404 00000-0 47171-3 0 9999 2 40025 98.0980 129.9369 0009592 35.0252 325.1609 15.17534408646020 OBJECT G 1 40905U 15049G 26122.19293463 .00039798 00000-0 43816-3 0 9998 2 40905 97.4604 163.6161 0005561 45.9403 314.2313 15.63028433589257 LILACSAT 2 1 40908U 15049K 26122.19706288 .00019110 00000-0 34271-3 0 9996 2 40908 97.4709 157.3298 0008549 69.6338 290.5831 15.49933261588625 LQSAT 1 40958U 15057A 26122.19805613 .00000500 00000-0 78121-4 0 9998 2 40958 97.6672 117.8551 0018547 63.4366 296.8743 14.76723388568520 CHUBUSAT 2 1 41338U 16012B 26121.73758445 .00006717 00000-0 29496-3 0 9998 2 41338 30.9984 266.0981 0008741 324.1533 35.8521 15.20416267561344 CHUBUSAT 3 1 41339U 16012C 26122.12227332 .00005769 00000-0 26984-3 0 9994 2 41339 31.0048 272.0772 0008981 316.7523 43.2412 15.18179115561195 PRATHAM 1 41783U 16059A 26121.93598367 .00000812 00000-0 15172-3 0 9996 2 41783 97.8324 120.8290 0031503 8.7867 351.3883 14.67131055512730 ALSAT 1N 1 41789U 16059G 26122.07844535 .00001042 00000-0 18396-3 0 9996 2 41789 97.8013 127.4843 0025510 338.8904 21.1247 14.69231590513237